Weather History for Indianapolis, IN

Change the Weather History Date:

Friday, December 7, 2012

  Actual Average (KEYE) Record (KEYE)
Temperature  
Mean Temperature 44 °F 34 °F  
Max Temperature 47 °F 41 °F 61 °F (2004)
Min Temperature 41 °F 27 °F 6 °F (2005)
Degree Days  
Heating Degree Days 21 31  
Month to date heating degree days 206  
Since 1 July heating degree days 1230  
Cooling Degree Days 0 0  
Month to date cooling degree days 0  
Year to date cooling degree days 1058  
Moisture  
Dew Point 42 °F    
Average Humidity 87    
Maximum Humidity 90    
Minimum Humidity 74    
Precipitation  
Precipitation 0.43 in 0.09 in 0.68 in (2004)
Month to date precipitation 0.62  
Year to date precipitation 38.33  
Sea Level Pressure  
Sea Level Pressure 29.90 in    
Wind  
Wind Speed 4 mph (SE)    
Max Wind Speed 9 mph    
Max Gust Speed -    
Visibility 5 miles    
Events Fog , Rain    
T = Trace of Precipitation, MM = Missing Value Source: NWS Daily Summary

Daily Weather History Graph

Daily Weather History Graph

Search for Another Location

Airport:

Trip Planner

Search our weather history database for the weather conditions in past years. The results will help you decide how hot, cold, wet, or windy it might be!

Date:

Astronomy

Dec. 07, 2012 Rise Set
Actual Time 7:53 AM EST 5:19 PM EST
Civil Twilight 7:23 AM EST 5:49 PM EST
Nautical Twilight 6:49 AM EST 6:23 PM EST
Astronomical Twilight 6:16 AM EST 6:56 PM EST
Moon 1:12 AM EST (12/7) 1:16 PM EST (12/7)
Length of Visible Light 10h 26m
Length of Day
9h 25m
Last Quarter, 39% of the Moon is Illuminated
Dec 7
Last Quarter
Dec 13
New
Dec 20
First Quarter
Dec 28
Full
Jan 4
Last Quarter

Hourly Weather History & Observations

Time (EST) Temp. Windchill Dew Point Humidity Pressure Visibility Wind Dir Wind Speed Gust Speed Precip Events Conditions
12:15 AM 41.9 °F 39.0 °F 35.2 °F 77% 29.96 in 10.0 mi South 4.6 mph - N/A   Scattered Clouds
12:55 AM 42.8 °F 40.1 °F 35.8 °F 76% 29.96 in 10.0 mi SW 4.6 mph - N/A   Mostly Cloudy
1:15 AM 42.4 °F 40.7 °F 35.8 °F 77% 29.96 in 10.0 mi SW 3.5 mph - N/A   Scattered Clouds
1:35 AM 43.7 °F 40.3 °F 36.5 °F 76% 29.97 in 10.0 mi SSW 5.8 mph - N/A   Mostly Cloudy
1:55 AM 44.2 °F 41.8 °F 36.5 °F 74% 29.96 in 10.0 mi SW 4.6 mph - N/A   Overcast
2:15 AM 44.1 °F 41.5 °F 36.7 °F 75% 29.96 in 10.0 mi SW 4.6 mph - N/A   Overcast
2:35 AM 43.9 °F 42.3 °F 36.7 °F 76% 29.95 in 10.0 mi WSW 3.5 mph - N/A   Overcast
2:55 AM 43.7 °F 41.1 °F 37.4 °F 78% 29.96 in 10.0 mi SSW 4.6 mph - N/A   Overcast
3:15 AM 44.1 °F 41.5 °F 37.8 °F 78% 29.96 in 10.0 mi SSW 4.6 mph - N/A   Overcast
3:35 AM 44.1 °F 42.5 °F 37.8 °F 78% 29.94 in 10.0 mi SSW 3.5 mph - N/A   Mostly Cloudy
3:55 AM 42.8 °F - 37.4 °F 81% 29.94 in 10.0 mi Calm Calm - N/A   Scattered Clouds
4:15 AM 42.3 °F - 37.4 °F 83% 29.94 in 10.0 mi Calm Calm - N/A   Overcast
4:35 AM 43.2 °F 40.5 °F 38.3 °F 83% 29.95 in 10.0 mi SW 4.6 mph - N/A   Overcast
4:55 AM 44.1 °F - 39.2 °F 83% 29.95 in 10.0 mi Calm Calm - N/A   Overcast
5:15 AM 44.8 °F 42.4 °F 40.3 °F 84% 29.95 in 7.0 mi NW 4.6 mph - N/A   Drizzle
5:35 AM 45.7 °F 44.4 °F 41.9 °F 87% 29.95 in 5.0 mi WNW 3.5 mph - N/A Rain Rain
5:55 AM 45.9 °F 43.6 °F 42.1 °F 87% 29.94 in 5.0 mi NW 4.6 mph - N/A Rain Light Rain
6:15 AM 45.9 °F 42.9 °F 42.3 °F 87% 29.95 in 5.0 mi WNW 5.8 mph - N/A   Overcast
6:35 AM 45.5 °F 40.8 °F 41.9 °F 87% 29.94 in 4.0 mi NNW 9.2 mph - N/A   Overcast
6:55 AM 45.3 °F - 41.9 °F 88% 29.95 in 5.0 mi Calm Calm - N/A Rain Rain
7:15 AM 44.8 °F 41.0 °F 41.4 °F 88% 29.97 in 4.0 mi SSW 6.9 mph - 0.01 in   Drizzle
7:35 AM 45.0 °F - 41.5 °F 88% 29.97 in 5.0 mi Calm Calm - 0.01 in Rain Rain
7:55 AM 44.6 °F - 41.0 °F 87% 29.96 in 4.0 mi Calm Calm - 0.01 in   Drizzle
8:15 AM 44.1 °F 40.8 °F 41.0 °F 89% 29.96 in 2.0 mi ENE 5.8 mph - 0.01 in Rain Light Rain
8:35 AM 44.6 °F 42.2 °F 41.2 °F 88% 29.95 in 3.0 mi NE 4.6 mph - 0.01 in   Light Drizzle
8:55 AM 44.6 °F 42.2 °F 41.2 °F 88% 29.95 in 2.5 mi NNE 4.6 mph - 0.01 in   Drizzle
9:15 AM 44.6 °F 40.2 °F 41.4 °F 88% 29.98 in 3.0 mi South 8.1 mph - N/A   Overcast
9:35 AM 45.1 °F 41.4 °F 41.9 °F 88% 29.97 in 3.0 mi SSE 6.9 mph - N/A Rain Light Rain
9:55 AM 45.5 °F 41.8 °F 42.3 °F 88% 29.97 in 3.0 mi SE 6.9 mph - 0.01 in Rain Light Rain
10:15 AM 45.5 °F 42.5 °F 42.3 °F 88% 29.97 in 2.5 mi SSE 5.8 mph - 0.01 in Rain Light Rain
10:35 AM 45.9 °F 43.6 °F 42.8 °F 89% 29.97 in 2.5 mi SE 4.6 mph - 0.03 in Rain Light Rain
10:55 AM 46.0 °F 44.8 °F 42.8 °F 88% 29.96 in 2.5 mi ESE 3.5 mph - 0.05 in Rain Light Rain
11:15 AM 46.4 °F 45.2 °F 43.0 °F 88% 29.96 in 2.0 mi SE 3.5 mph - 0.01 in Rain Light Rain
11:35 AM 46.4 °F 44.3 °F 43.3 °F 89% 29.95 in 2.5 mi SE 4.6 mph - 0.02 in Rain Light Rain
11:55 AM 46.8 °F - 43.7 °F 89% 29.94 in 2.5 mi SE 4.6 mph - 0.03 in Rain Rain
12:15 PM 47.1 °F - 43.9 °F 88% 29.93 in 3.0 mi ESE 4.6 mph - 0.01 in Rain Light Rain
12:35 PM 47.3 °F - 44.1 °F 88% 29.92 in 3.0 mi SE 8.1 mph - 0.02 in Rain Light Rain
12:55 PM 47.3 °F - 44.1 °F 88% 29.91 in 3.0 mi SSE 5.8 mph - 0.03 in Rain Light Rain
1:15 PM 47.3 °F - 44.1 °F 88% 29.91 in 3.0 mi SE 4.6 mph - 0.02 in Rain Light Rain
1:35 PM 47.3 °F - 44.1 °F 88% 29.88 in 3.0 mi ESE 6.9 mph - 0.04 in Rain Light Rain
1:55 PM 47.3 °F - 44.1 °F 88% 29.87 in 4.0 mi SE 3.5 mph - 0.07 in Rain Light Rain
2:15 PM 47.3 °F - 44.1 °F 88% 29.87 in 3.0 mi SE 3.5 mph - 0.03 in Rain Rain
2:35 PM 47.5 °F - 44.2 °F 89% 29.86 in 4.0 mi ESE 3.5 mph - 0.05 in Rain Light Rain
2:55 PM 47.5 °F - 44.2 °F 89% 29.87 in 3.0 mi SE 4.6 mph - 0.08 in Rain Light Rain
3:15 PM 47.5 °F - 44.2 °F 89% 29.86 in 3.0 mi ESE 6.9 mph - 0.02 in Rain Light Rain
3:35 PM 47.3 °F - 43.9 °F 88% 29.86 in 5.0 mi ESE 6.9 mph - 0.04 in Rain Light Rain
3:55 PM 46.9 °F - 43.7 °F 88% 29.85 in 5.0 mi East 8.1 mph - 0.04 in   Drizzle
4:15 PM 46.8 °F - 43.7 °F 89% 29.85 in 5.0 mi East 6.9 mph - 0.01 in   Drizzle
4:35 PM 46.8 °F - 43.7 °F 89% 29.85 in 5.0 mi ESE 8.1 mph - 0.01 in   Drizzle
4:55 PM 46.8 °F - 43.7 °F 89% 29.84 in 5.0 mi East 5.8 mph - 0.01 in   Overcast
5:15 PM 46.6 °F - 43.3 °F 88% 29.84 in 7.0 mi East 5.8 mph - N/A Rain Rain
5:35 PM 46.6 °F - 43.3 °F 88% 29.84 in 4.0 mi East 4.6 mph - 0.04 in Rain Rain
5:55 PM 46.6 °F - 43.3 °F 88% 29.84 in 4.0 mi Calm Calm - 0.06 in Rain Rain
6:15 PM 46.6 °F - 43.7 °F 90% 29.83 in 4.0 mi East 4.6 mph - N/A   Overcast
6:35 PM 46.6 °F - 43.7 °F 90% 29.83 in 3.0 mi East 4.6 mph - N/A Rain Rain
6:55 PM 46.4 °F 43.5 °F 43.3 °F 89% 29.84 in 3.0 mi North 5.8 mph - 0.01 in   Overcast
7:15 PM 46.4 °F 42.9 °F 43.3 °F 89% 29.84 in 3.0 mi NNE 6.9 mph - N/A Rain Light Rain
7:35 PM 46.2 °F 43.3 °F 43.3 °F 90% 29.84 in 2.5 mi NNE 5.8 mph - N/A   Drizzle
7:55 PM 46.4 °F 43.5 °F 43.3 °F 89% 29.84 in 2.5 mi NE 5.8 mph - 0.01 in   Drizzle
8:15 PM 46.4 °F 45.2 °F 43.3 °F 89% 29.84 in 3.0 mi ENE 3.5 mph - N/A   Light Drizzle
8:35 PM 46.4 °F 42.9 °F 43.7 °F 90% 29.83 in 3.0 mi NE 6.9 mph - N/A   Overcast
8:55 PM 46.4 °F 44.3 °F 43.7 °F 90% 29.84 in 4.0 mi NE 4.6 mph - N/A   Overcast
9:15 PM 46.4 °F - 43.7 °F 90% 29.84 in 2.0 mi Calm Calm - N/A   Overcast
9:35 PM 46.4 °F - 43.7 °F 90% 29.84 in 1.8 mi Calm Calm - N/A   Overcast
9:55 PM 46.4 °F - 43.7 °F 90% 29.84 in 2.0 mi Calm Calm - 0.01 in   Overcast
10:15 PM 46.4 °F - 43.7 °F 90% 29.85 in 1.2 mi Calm Calm - N/A   Overcast
10:35 PM 46.4 °F - 43.7 °F 90% 29.84 in 1.0 mi Calm Calm - N/A   Overcast
10:55 PM 46.4 °F - 43.7 °F 90% 29.84 in 0.8 mi Calm Calm - N/A   Overcast
11:15 PM 46.0 °F 44.8 °F 43.3 °F 90% 29.84 in 0.8 mi SW 3.5 mph - N/A   Overcast
11:35 PM 46.2 °F - 43.5 °F 90% 29.84 in 0.5 mi Calm Calm - N/A Fog Fog
11:55 PM 46.4 °F - 43.7 °F 90% 29.84 in 0.8 mi Calm Calm - N/A   Overcast